View from above orbital plane
|
View from above satellite
|
Ground track
|
The orbit data is extracted from the following two-line orbital elements,
1 41759U 16056A 20133.81295366 0.00000000 00000-0 00000-0 0 06
2 41759 141.8552 279.8922 0006334 285.1363 74.8629 15.34726396 09
Epoch (UTC): | 12 May 2020 19:30:39 |
Eccentricity: | 0.0006334 |
inclination: | 141.8552° |
perigee height: | 457 km |
apogee height: | 466 km |
right ascension of ascending node: | 279.8922° |
argument of perigee: | 285.1363° |
revolutions per day: | 15.34726396 |
mean anomaly at epoch: | 74.8629° |
orbit number at epoch: | 0 |
The dashed part of the orbit path shows where the satellite is in the earth's shadow,
|
|